Weather History for Santee, CA

Change the Weather History Date:

Friday, March 8, 2013

  Actual Average Record
Temperature  
Mean Temperature 50 °F -  
Max Temperature 53 °F 69 °F 93 °F (2004)
Min Temperature 46 °F 45 °F 38 °F (1991)
Degree Days  
Heating Degree Days 16    
Moisture  
Dew Point 47 °F    
Average Humidity 92    
Maximum Humidity 100    
Minimum Humidity 67    
Precipitation  
Precipitation 0.77 in - - ()
Sea Level Pressure  
Sea Level Pressure 29.95 in    
Wind  
Wind Speed 6 mph (SSE)    
Max Wind Speed 12 mph    
Max Gust Speed 18 mph    
Visibility 6 miles    
Events Rain    
Averages and records for this station are not official NWS values.
T = Trace of Precipitation, MM = Missing Value Source: NWS Daily Summary

Daily Weather History Graph

Daily Weather History Graph

Search for Another Location

Airport:

Trip Planner

Search our weather history database for the weather conditions in past years. The results will help you decide how hot, cold, wet, or windy it might be!

Date:

Astronomy

Mar. 08, 2013 Rise Set
Actual Time 6:06 AM PST 5:50 PM PST
Civil Twilight 5:42 AM PST 6:15 PM PST
Nautical Twilight 5:13 AM PST 6:44 PM PST
Astronomical Twilight 4:44 AM PST 7:12 PM PST
Moon 3:45 AM PST (3/8) 2:58 PM PST (3/8)
Length of Visible Light 12h 33m
Length of Day
11h 44m
Waning Crescent, 11% of the Moon is Illuminated
Mar 8
Waning Crescent
Mar 11
New
Mar 19
First Quarter
Mar 27
Full
Apr 2
Last Quarter

Hourly Weather History & Observations

Time (PST) Temp. Windchill Dew Point Humidity Pressure Visibility Wind Dir Wind Speed Gust Speed Precip Events Conditions
12:15 AM 50.0 °F - 50.0 °F 100% 29.90 in 5.0 mi Calm Calm - 0.03 in Rain Rain
12:35 AM 51.8 °F - 51.8 °F 100% 29.89 in 5.0 mi SE 5.8 mph - 0.06 in Rain Rain
12:55 AM 51.8 °F - 51.8 °F 100% 29.88 in 4.0 mi SSE 4.6 mph - 0.09 in Rain Rain
1:15 AM 51.8 °F - 51.8 °F 100% 29.88 in 8.0 mi South 6.9 mph - 0.02 in Rain Light Rain
1:35 AM 51.8 °F - 51.8 °F 100% 29.87 in 5.0 mi South 11.5 mph - 0.03 in Rain Light Rain
1:55 AM 51.8 °F - 51.8 °F 100% 29.87 in 6.0 mi South 9.2 mph - 0.03 in   Overcast
2:15 AM 51.8 °F - 51.8 °F 100% 29.86 in 2.5 mi South 11.5 mph 18.4 mph N/A Rain Light Rain
2:35 AM 51.8 °F - 51.8 °F 100% 29.85 in 3.0 mi SSE 9.2 mph - 0.01 in   Light Drizzle
2:55 AM 51.8 °F - 51.8 °F 100% 29.84 in 6.0 mi SSE 9.2 mph - 0.01 in   Light Drizzle
3:15 AM 50.0 °F - 50.0 °F 100% 29.83 in 10.0 mi SE 9.2 mph - N/A   Light Drizzle
3:35 AM 50.0 °F - 48.2 °F 94% 29.83 in 9.0 mi SSE 8.1 mph - 0.01 in   Light Drizzle
3:55 AM 50.0 °F - 48.2 °F 94% 29.84 in 4.0 mi SSW 5.8 mph - 0.02 in Rain Rain
4:15 AM 48.2 °F - 48.2 °F 100% 29.85 in 2.5 mi SSW 8.1 mph - 0.09 in Rain Heavy Rain
4:35 AM 48.2 °F - 48.2 °F 100% 29.85 in 2.5 mi South 8.1 mph - 0.20 in Rain Heavy Rain
4:55 AM 48.2 °F - 48.2 °F 100% 29.86 in 3.0 mi SSW 4.6 mph - 0.31 in Rain Heavy Rain
5:15 AM 48.2 °F - 48.2 °F 100% 29.87 in 3.0 mi West 6.9 mph - 0.05 in Rain Heavy Rain
6:47 AM 48.2 °F - 46.4 °F 93% 29.90 in 9.0 mi Calm Calm - N/A   Mostly Cloudy
7:47 AM 48.2 °F - 46.4 °F 93% 29.92 in 10.0 mi Variable 5.8 mph - N/A   Scattered Clouds
8:47 AM 53.6 °F - 42.8 °F 67% 29.93 in 10.0 mi Calm Calm - N/A   Mostly Cloudy
1:47 PM 46.4 °F 42.9 °F 42.8 °F 87% 29.93 in 5.0 mi Variable 6.9 mph - N/A Rain Light Rain
4:47 PM 51.8 °F - 41.0 °F 67% 29.95 in 12.0 mi SSE 6.9 mph - N/A   Mostly Cloudy
8:15 PM 48.2 °F - 41.0 °F 76% 30.08 in 10.0 mi ESE 3.5 mph - N/A   Mostly Cloudy
8:35 PM 48.2 °F - 42.8 °F 82% 30.09 in 10.0 mi SSE 4.6 mph - N/A   Mostly Cloudy
8:55 PM 48.2 °F - 41.0 °F 76% 30.09 in 10.0 mi SSW 3.5 mph - N/A   Mostly Cloudy
9:15 PM 48.2 °F - 42.8 °F 82% 30.09 in 10.0 mi South 3.5 mph - N/A   Overcast
9:35 PM 48.2 °F - 42.8 °F 82% 30.09 in 10.0 mi SSE 6.9 mph - N/A   Overcast
9:55 PM 48.2 °F - 42.8 °F 82% 30.10 in 10.0 mi SSE 5.8 mph - N/A   Mostly Cloudy
10:15 PM 48.2 °F - 42.8 °F 82% 30.10 in 5.0 mi SSE 5.8 mph - 0.01 in Rain Rain
10:35 PM 46.4 °F 43.5 °F 44.6 °F 93% 30.10 in 4.0 mi SE 5.8 mph - 0.08 in Rain Heavy Rain
10:55 PM 46.4 °F 43.5 °F 46.4 °F 100% 30.09 in 5.0 mi ESE 5.8 mph - 0.12 in   Light Drizzle
11:15 PM 46.4 °F 42.9 °F 46.4 °F 100% 30.08 in 4.0 mi ESE 6.9 mph - 0.02 in Rain Rain
11:35 PM 46.4 °F 44.3 °F 46.4 °F 100% 30.09 in 3.0 mi SE 4.6 mph - 0.04 in Rain Rain
11:55 PM 46.4 °F 43.5 °F 46.4 °F 100% 30.09 in 4.0 mi South 5.8 mph - 0.14 in Rain Light Rain